Regional Weather Roundup
Issued by NWS Wakefield, VA

Home | Current Version | Previous Version | Graphics & Text | Print | Product List | Glossary On
Versions: 1 2 3 4 5 6 7 8 9 10 11 12 13 14 15 16 17 18 19 20 21 22 23 24 25 26 27
000
ASUS41 KAKQ 181710
RWRAKQ

REGIONAL WEATHER ROUNDUP
NATIONAL WEATHER SERVICE WAKEFIELD VA
100 PM EDT FRI APR 18 2014

Note: "fair" indicates few or no clouds below 12,000 feet with no
significant weather and/or obstructions to visibility. * = Denotes
station may not report precipitation (e.g., rain,snow,etc.),
thunder or fog.

VAZ042-051-052>054-056-181800-
NORTHERN VIRGINIA

CITY           SKY/WX    TMP DP  RH WIND       PRES   REMARKS
WASH NATIONAL  CLOUDY    50  32  50 CALM      30.45F
DULLES         CLOUDY    47  33  58 NE3       30.43F
FORT BELVOIR   CLOUDY    49  31  50 CALM      30.45F
QUANTICO       CLOUDY    48  34  58 S5        30.46F
FREDERICKSBRG* PTSUNNY   50  36  57 E3        30.44F
STAFFORD*      PTSUNNY   51  36  58 CALM      30.48F
WARRENTON      CLOUDY    51  41  68 CALM      30.43F
CULPEPER*      PTSUNNY   52  36  54 CALM      30.44F
MANASSAS*      PTSUNNY   50  36  57 NE5       30.44F
LEESBURG*      PTSUNNY   48  36  61 SE5       30.43F
WINCHESTER     PTSUNNY   50  36  57 E3        30.39F
$$

VAZ048-049-060>072-079>083-181800-
CENTRAL AND SOUTH CENTRAL VIRGINIA...AND NORTH CENTRAL NORTH CAROLINA

CITY           SKY/WX    TMP DP  RH WIND       PRES   REMARKS
RICHMOND       CLOUDY    51  33  50 N5        30.43F
CHESTERFIELD*  NOT AVBL
HANOVER        PTSUNNY   50  34  54 VRB5      30.45F
TAPPAHANNOCK*  PTSUNNY   49  32  51 NE5       30.44F
CHARLOTTSVILLE MOSUNNY   52  37  56 VRB3      30.40F
ORANGE*        MOSUNNY   50  36  57 NW6       30.43F
LOUISA*        SUNNY     54  37  54 NW5       30.40F
FARMVILLE*     PTSUNNY   54  36  50 CALM      30.41F
SOUTH HILL*    CLOUDY    54  37  54 CALM      30.47F
ROANOKE RAPIDS CLOUDY    55  41  58 N5        30.41F
RALEIGH        CLOUDY    56  38  50 N8        30.41F
$$

VAZ088>098-181800-
SOUTHEAST VIRGINIA

CITY           SKY/WX    TMP DP  RH WIND       PRES   REMARKS
NORFOLK        CLOUDY    50  40  68 NE10      30.43F
VIRGINIA BEACH PTSUNNY   51  40  65 N16       30.43S
NORFOLK NAVAL  CLOUDY    50  39  66 NE12      30.44F
WEST POINT*    CLOUDY    52  35  51 CALM      30.45F
NEWPORT NEWS   PTSUNNY   53  39  59 E8        30.43F
LANGLEY AFB    CLOUDY    48  40  71 VRB5      30.45F
FORT EUSTIS    PTSUNNY   52  42  66 E7        30.41F
WILLIAMSBURG*  PTSUNNY   55  41  58 NE5       30.43F
FRANKLIN*      CLOUDY    55  41  58 N3        30.42F
WAKEFIELD      CLOUDY    53  37  54 VRB3      30.43F
$$

VAZ020-022-025-037-045-181800-
WESTERN AND SOUTHWEST VIRGINIA

CITY           SKY/WX    TMP DP  RH WIND       PRES   REMARKS
STAUNTON*      MOSUNNY   52  36  54 S5        30.38F
HOT SPRINGS VA PTSUNNY   50  36  57 CALM      30.38F
LYNCHBURG      CLOUDY    55  37  50 S6        30.41F
DANVILLE       CLOUDY    53  36  52 CALM      30.41F
MARTINSVILLE   CLOUDY    52  39  61 CALM      30.43F
ROANOKE        CLOUDY    49  36  61 CALM      30.41F
BLACKSBURG     CLOUDY    52  43  71 CALM      30.40F
DUBLIN*        CLOUDY    49  38  64 SW5       30.38F
MARION*        CLOUDY    49  33  55 E3        30.39F
HILLSVILLE*    CLOUDY    48  36  61 SW6       30.40S
RICHLANDS*     CLOUDY    59  32  36 W3        30.35S
WISE*          CLOUDY    59  32  36 CALM      30.35F
ABINGDON*      CLOUDY    56  31  38 CALM      30.36F
$$

MDZ021>025-VAZ099-100-181800-
SOUTHERN MARYLAND AND THE DELMARVA PENINSULA

CITY           SKY/WX    TMP DP  RH WIND       PRES   REMARKS
PATUXENT RIVER CLOUDY    48  34  58 VRB3      30.45F
BAY BRIDGE APT PTSUNNY   45  32  61 NW8       30.46F
LEONARDTOWN    PTSUNNY   48  34  57 NW5       30.46F
DOVER          PTSUNNY   47  35  63 SE6       30.43F
GEORGETOWN     PTSUNNY   49  34  56 E6        30.46F
EASTON         PTSUNNY   50  37  62 CALM      30.49F
CAMBRIDGE      PTSUNNY   52  34  50 N7        30.43F
SALISBURY      SUNNY     53  35  50 VRB5      30.43F
OCEAN CITY     CLOUDY    48  38  68 NE9       30.45F
WALLOPS ISLAND CLOUDY    50  39  66 E13       30.44F
ACCOMACK*      PTSUNNY   52  36  54 E3        30.42F
$$

NCZ012>017-030>032-181800-
EASTERN NORTH CAROLINA

CITY           SKY/WX    TMP DP  RH WIND       PRES   REMARKS
ELIZABETH CITY PTSUNNY   53  41  63 NE13      30.41F
AHOSKIE*       CLOUDY    55  40  57 N9        30.42S
EDENTON*       PTSUNNY   57  43  60 NE6       30.39F
CURRITUCK*     PTSUNNY   51  39  63 N14       30.42F
KILL DEVIL HLS PTSUNNY   50  42  75 N10G17    30.39S
MANTEO         PTSUNNY   52  43  72 NE15G22   30.40S
CAPE HATTERAS  CLOUDY    54  47  77 NE13G22   30.36F
GOLDSBORO      CLOUDY    57  42  57 N12       30.36F
WASHINGTON     CLOUDY    58  45  61 NE10      30.38F
GREENVILLE     CLOUDY    57  43  58 N6        30.39S
NEW BERN       CLOUDY    60  47  61 N10       30.36F
WILMINGTON     CLOUDY    64  46  52 NE15      30.32F
$$

VAZ048-181800-
ELSEWHERE

CITY           SKY/WX    TMP DP  RH WIND       PRES   REMARKS
HARRISBURG PA  CLOUDY    48  30  49 VRB3      30.43F
BALTIMORE      CLOUDY    45  31  58 VRB3      30.45F
ANNAPOLIS      PTSUNNY   45  34  65 SE7       30.46F
ANDREWS AFB    CLOUDY    47  32  57 VRB1      30.44F
WILMINGTON DE  CLOUDY    48  32  53 S7        30.47F
PHILADELPHIA   CLOUDY    49  30  48 NE5       30.48F
WILDWOOD NJ*   PTSUNNY   46  34  61 E13       30.47F
ATLANTIC CITY  CLOUDY    47  35  63 NE5       30.47S
HENDERSON NC   CLOUDY    52  35  52 NE7       30.41F
GREENSBORO     CLOUDY    51  36  56 NE5       30.39F
ROCKY MOUNT    CLOUDY    56  38  50 N10       30.40F
FAYETTEVILLE   CLOUDY    58  38  47 N10       30.37F
CHARLOTTE      CLOUDY    56  41  57 N7        30.37F
$$

VAZ100-181800-
MARINE

STATION/POSITION TIME  TEMP    WIND        PRES    WAVE   SWELL
                       AIR SEA DIR/SP/G            HT/PER HT/PER
                 (UTC) (F)     (DEG/KT/KT) (MB)    (FT/S) (FT/S)
44066 TX TWR #4  1700   41 45   30/ 12/ 14 1030.6F   8/10   7/10
CAPE MAY NJ      1700   45 51  100/  5/ 10 1031.1F
LEWES DE         1700   43 48   70/  8/ 10 1031.0S
15NM E FENWICK I 1700   43 45              1031.0F   6/11
OCEAN-CITY-INLET 1700   45 46   60/  8/ 12 1030.8F
WACHAPREAGUE VA  1700   46 50   60/ 13/ 15 1030.1F
THOMAS POINT MD  1700   42 52  330/  4/  5 1032.0F
GOOSES REEF MD   1700   43      20/  6/ 10 1033.4F
COVE POINT MD    1700   43     280/  2/  3 1031.2F
SOLOMONS ISLAND  1700      51                N/A
BISHOPS HEAD MD  1700   48 53  350/  4/  8 1030.5F
PINEY POINT MD   1700          250/  3/  4   N/A
POTOMAC MD       1700   44      40/  6/  8 1030.8F
CAMBRIDGE MD     1700   47 55   20/  3/  5 1030.5F
LEWISETTA VA     1700   45 53   40/  3/  4 1031.0F
RAPPAHANNOCK LGT 1700          350/ 12/ 14 1030.8F
STINGRAY PT      1700   45      30/  8/ 10 1030.8F
YORK RVR RNG VA  1700   46      30/  6/  7 1030.0F
YORKTOWN VA      1700   46 54   90/ 10/ 11 1030.6F
JAMESTOWN VA     1700   50     120/  4/  6   N/A
DOMINION TERM VA 1700   47      90/  7/ 11 1030.6F
KIPTOPEKE VA     1700      52   50/  6/ 13   N/A
CHES BAY BRIDGE  1700   45 50   40/ 12/ 13 1030.5R
CAPE HENRY VA    1700   45      40/ 13/ 16   N/A
CHESAPEAKE LGHT  1600   44      20/ 17/ 18 1030.9F
WILLOUBY STN VA  1700   45      50/  8/ 11 1029.9S
S CRANEY ISL VA  1700          360/  9/ 12 1030.8S
CAPE HENRY BUOY  1700      46                N/A     5/11   2/11
1ST LANDING BUOY 1700      45                N/A     5/11   5/11
64NM E OF VA BCH 1700   47 49  360/ 19/ 21 1028.7F   8/ 9   7/ 9
DUCK PIER NC     1700   46 51   10/ 17/ 20 1028.5R
44100 DUCK FRF   1700      48                N/A     7/12   3/12
44056 DUCK FRF   1700      49                N/A     7/11   3/11
OREGON INLET NC  1700   49 50  360/ 13/ 21 1029.0F
HATTERAS NC      1700   50 55   10/ 23/ 25 1028.0F
CAPE LOOKOUT NC  1600   55      30/ 20/ 24 1027.1F
FRYING PAN SHLS  1700   59 64   50/ 21/ 25 1024.8F   7/ 7   3/ 8
$$



USA.gov is the U.S. government's official web portal to all federal, state and local government web resources and services.